Location: Wanzleben
(52.0609°N, 11.4408°E)
Time: 02:57:38
(UTC+00:00)

Envisat - Pass Details

Date: 25 November 2020
Orbit: 764 x 766 km, 98.1° (Epoch: 20 January)

Event Time Altitude Azimuth Distance (km) Brightness Sun altitude
Rises 16:59:25 0° 192° (SSW) 3,222 6.6 -16.1°
Reaches altitude 10° 17:01:57 10° 202° (SSW) 2,301 5.9 -16.4°
Maximum altitude 17:06:29 32° 266° (W) 1,291 4.9 -17.1°
Drops below altitude 10° 17:11:03 10° 329° (NNW) 2,317 5.7 -17.8°
Sets 17:13:36 0° 339° (NNW) 3,248 6.4 -18.2°
